2021-014D (47694 NORAD) Tracking and Keplerian Element Data

This shows tracking and keplerian element data for the satellite.

Feedback or suggestion? Click here.




ElementValue
Catalog47694
Name2021-014D
Epoch Orbit389
Epoch Day84.0880261
Epoch Year2021
RAAN63.2611
Inclination63.4089
Eccentricity0.0005024
Argument of Perigee292.4218
Mean Anonmoly67.6284
Mean Motion13.44213615
Decay Rate-9E-07
L11 47694U 21014D 21084.08802610 -.00000090 00000-0 00000+0 0 9997
L22 47694 63.4089 63.2611 0005024 292.4218 67.6284 13.44213615 3893

Live tracking and technical data element details for 2021-014D (NORAD 47694). 2021-014D can be tracked NOW for your location showing map with azimuth and elevation plus other details from your city location.

Track the satellite on the map from your city or location and see movement details for azimuth, elevation, latitude, longitude, range, height, and movement on the map or in text.







IsCatalogInMostPopularTable: catalog: 47694, numindb: 16
Update: records affected: 1



GetName: 47694 2021-014D

Hit Count: updated at: Fri, 16 Apr 2021 11:33:57 GMT